Location: Asheville, NC
(35.6000°N, 82.5500°W)
Time: 20:05:53
(UTC-05:00)

ISS - Pass Details

Date: 08 December 2020
Orbit: 418 x 419 km, 51.6° (Epoch: 17 January)

Event Time Altitude Azimuth Distance (km) Brightness Sun altitude
Rises 18:27:28 0° 312° (NW) 2,359 0.5 -14.0°
Reaches altitude 10° 18:29:34 10° 313° (NW) 1,493 -0.6 -14.4°
Maximum altitude 18:32:55 86° 38° (NE) 421 -3.9 -15.1°
Enters shadow 18:35:22 17° 131° (SE) 1,127 -1.9 -15.5°
